Location: Fredericksburg
(30.2750°N, 98.8720°W)
Time: 20:42:31
(UTC-06:00)

ISS - All Passes

Search period start: 17 December 2014 00:00
Search period end: 27 December 2014 00:00
Orbit: 404 x 415 km, 51.6° (Epoch: 17 December)

Date Brightness Start Highest point End Pass type
(mag) Time Alt. Az. Time Alt. Az. Time Alt. Az.
17 Dec - 00:21:45 10° WSW 00:22:33 11° SW 00:23:20 10° SW night (unlit)
17 Dec - 13:44:10 10° S 13:46:45 21° SE 13:49:20 10° ENE daylight
17 Dec - 15:20:30 10° W 15:23:14 23° NW 15:25:57 10° NNE daylight
17 Dec - 21:53:01 10° NNW 21:55:38 22° NE 21:58:14 10° E night (unlit)
17 Dec - 23:29:30 10° WNW 23:32:08 23° SW 23:34:45 10° S night (unlit)
18 Dec - 12:56:10 10° SE 12:56:18 10° SE 12:56:27 10° ESE daylight
18 Dec - 14:29:20 10° WSW 14:32:31 46° NW 14:35:43 10° NNE daylight
18 Dec - 21:03:18 10° N 21:04:49 13° NE 21:06:20 10° ENE night (unlit)
18 Dec - 22:38:26 10° NW 22:41:36 51° SW 22:44:46 10° SSE night (unlit)
19 Dec - 13:38:34 10° SW 13:41:51 76° SE 13:45:08 10° NE daylight
19 Dec - 15:18:27 10° NW 15:18:46 10° NNW 15:19:06 10° NNW daylight
19 Dec - 21:47:42 10° NW 21:50:57 67° NE 21:54:11 10° SE night (unlit)
20 Dec - 12:48:13 10° SSW 12:51:12 32° SE 12:54:11 10° ENE daylight
20 Dec - 14:25:32 10° W 14:27:49 17° NW 14:30:06 10° N daylight
20 Dec - 20:57:13 10° NNW 21:00:10 31° NE 21:03:05 10° ESE night (unlit)
20 Dec - 22:34:32 10° W 22:36:30 15° SW 22:38:28 10° SSW night (unlit)
21 Dec - 11:58:33 10° SSE 12:00:33 15° SE 12:02:34 10° E daylight
21 Dec - 13:33:55 10° WSW 13:36:54 31° NW 13:39:54 10° NNE daylight
21 Dec - 20:07:00 10° N 20:09:14 17° NE 20:11:26 10° E night (unlit)
21 Dec - 21:42:53 10° WNW 21:45:51 32° SW 21:48:47 10° SSE night (unlit)
22 Dec - 12:42:45 10° SW 12:46:01 69° NW 12:49:18 10° NE daylight
22 Dec - 20:51:48 10° NW 20:55:04 78° SW 20:58:18 10° SE night (unlit)
23 Dec - 11:51:58 10° SSW 11:55:10 50° SE 11:58:22 10° NE daylight
23 Dec - 13:30:18 10° WNW 13:31:56 13° NW 13:33:34 10° N daylight
23 Dec - 20:01:00 10° NNW 20:04:09 45° NE 20:07:17 10° ESE visible
23 Dec - 21:40:09 10° WSW 21:40:21 10° SW 21:40:33 10° SW night (unlit)
24 Dec - 11:01:42 10° S 11:04:20 22° SE 11:06:58 10° ENE daylight
24 Dec - 12:38:07 10° W 12:40:48 23° NW 12:43:29 10° NNE daylight
24 Dec - 19:10:26 10° NNW 19:13:06 23° NE 19:15:45 10° E visible
24 Dec - 20:46:59 10° WNW 20:49:34 22° SW 20:52:08 10° S night (unlit)
25 Dec - 10:12:51 10° SE 10:13:30 10° SE 10:14:09 10° ESE daylight
25 Dec - 11:46:32 10° WSW 11:49:42 45° NW 11:52:53 10° NNE daylight
25 Dec - 18:20:18 10° N 18:21:54 13° NE 18:23:31 10° ENE visible
25 Dec - 19:55:30 10° NW 19:58:40 49° SW 20:01:48 10° SSE visible
26 Dec - 10:55:22 10° SW 10:58:39 79° SE 11:01:56 10° NE daylight
26 Dec - 19:04:22 10° NW 19:07:37 69° NE 19:10:52 10° SE visible
